User: anonymous   Login
Location: Black Rock Desert
(40.7548°N, 119.2364°W)
Time: 18:26:03
(UTC-07:00)
Language:

Cosmos 1340 Rocket - Orbit

View from above orbital plane
View from above orbital plane
View from above satellite
View from above satellite

Ground track
Ground track

The orbit data is extracted from the following two-line orbital elements,

1 13068U 82013B   16120.50746489  .00000100  00000-0  51457-5 0  9993
2 13068  81.2027 334.5945 0020913 239.8092 120.1060 15.06547426861208
Epoch (UTC): 29 April 2016 12:10:44
Eccentricity: 0.0020913
inclination: 81.2027°
perigee height: 532 km
apogee height: 561 km
right ascension of ascending node: 334.5945°
argument of perigee: 239.8092°
revolutions per day: 15.06547426
mean anomaly at epoch: 120.1060°
orbit number at epoch: 86120

The dashed part of the orbit path shows where the satellite is in the earth's shadow,  

DLR